Weather History for Manhattan, KS

Change the Weather History Date:

Monday, December 31, 2012

  Actual Average Record
Temperature  
Mean Temperature 31 °F 28 °F  
Max Temperature 39 °F 40 °F 62 °F (2011)
Min Temperature 22 °F 17 °F 1 °F (2001)
Degree Days  
Heating Degree Days 34 37  
Month to date heating degree days 963 1067  
Since 1 July heating degree days 1921 2141  
Cooling Degree Days 0 0  
Month to date cooling degree days 0 0  
Year to date cooling degree days 1788 1362  
Moisture  
Dew Point 22 °F    
Average Humidity 66    
Maximum Humidity 88    
Minimum Humidity 44    
Precipitation  
Precipitation 0.14 in 0.02 in 0.14 in (2012)
Month to date precipitation 0.39 1.02  
Year to date precipitation 21.85 32.55  
Sea Level Pressure  
Sea Level Pressure 30.13 in    
Wind  
Wind Speed 8 mph (NE)    
Max Wind Speed 16 mph    
Max Gust Speed 20 mph    
Visibility 3 miles    
Events Fog , Snow    
T = Trace of Precipitation, MM = Missing Value Source: NWS Daily Summary

Daily Weather History Graph

Daily Weather History Graph

Search for Another Location

Airport:

Trip Planner

Search our weather history database for the weather conditions in past years. The results will help you decide how hot, cold, wet, or windy it might be!

Date:

Astronomy

Dec. 31, 2012 Rise Set
Actual Time 7:45 AM CST 5:14 PM CST
Civil Twilight 7:15 AM CST 5:44 PM CST
Nautical Twilight 6:42 AM CST 6:17 PM CST
Astronomical Twilight 6:09 AM CST 6:50 PM CST
Moon 8:44 PM CST (12/31) 9:29 AM CST (12/31)
Length of Visible Light 10h 28m
Length of Day
9h 28m
Waning Gibbous, 90% of the Moon is Illuminated
Dec 31
Waning Gibbous
Jan 4
Last Quarter
Jan 11
New
Jan 18
First Quarter
Jan 26
Full

Hourly Weather History & Observations

Time (CST) Temp. Windchill Dew Point Humidity Pressure Visibility Wind Dir Wind Speed Gust Speed Precip Events Conditions
12:52 AM 36.0 °F 31.1 °F 21.0 °F 55% 30.12 in 10.0 mi SW 5.8 mph - N/A   Partly Cloudy
1:52 AM 37.0 °F 31.6 °F 21.0 °F 52% 30.13 in 10.0 mi SSW 6.9 mph - N/A   Partly Cloudy
2:52 AM 36.0 °F - 21.9 °F 57% 30.12 in 10.0 mi Calm Calm - N/A   Partly Cloudy
3:52 AM 35.1 °F - 23.0 °F 61% 30.12 in 10.0 mi Calm Calm - N/A   Mostly Cloudy
4:52 AM 35.1 °F - 23.0 °F 61% 30.11 in 10.0 mi Calm Calm - N/A   Overcast
5:52 AM 33.1 °F 28.7 °F 23.0 °F 66% 30.10 in 10.0 mi North 4.6 mph - N/A   Overcast
6:52 AM 32.0 °F 25.6 °F 21.9 °F 66% 30.11 in 10.0 mi NNE 6.9 mph - N/A   Overcast
7:52 AM 30.9 °F 23.5 °F 21.0 °F 67% 30.13 in 10.0 mi NNE 8.1 mph - N/A   Overcast
8:50 AM 28.4 °F 20.4 °F 23.0 °F 80% 30.13 in 3.0 mi NE 8.1 mph - 0.00 in Snow Light Snow
8:52 AM 28.9 °F 21.1 °F 23.0 °F 78% 30.16 in 1.5 mi NE 8.1 mph - 0.00 in Snow Light Snow
9:48 AM 28.4 °F 19.1 °F 24.8 °F 86% 30.13 in 1.2 mi NE 10.4 mph - 0.00 in Snow Light Snow
9:52 AM 28.0 °F 19.3 °F 24.1 °F 85% 30.16 in 1.0 mi NE 9.2 mph - 0.00 in Snow Light Snow
10:06 AM 28.4 °F 19.7 °F 24.8 °F 86% 30.13 in 2.0 mi NE 9.2 mph - 0.00 in Snow Light Snow
10:20 AM 28.4 °F 19.1 °F 24.8 °F 86% 30.14 in 1.8 mi NNE 10.4 mph - 0.00 in Snow Light Snow
10:36 AM 28.4 °F 20.4 °F 24.8 °F 86% 30.14 in 0.8 mi NE 8.1 mph - 0.00 in Snow Light Snow
10:49 AM 28.4 °F 19.1 °F 24.8 °F 86% 30.14 in 1.2 mi ENE 10.4 mph - 0.01 in Snow Light Snow
10:52 AM 28.0 °F 18.6 °F 24.1 °F 85% 30.17 in 1.5 mi ENE 10.4 mph - 0.01 in Snow Light Snow
10:59 AM 28.4 °F 18.5 °F 24.8 °F 86% 30.15 in 1.0 mi NE 11.5 mph - 0.00 in Snow Light Snow
11:09 AM 28.4 °F 19.7 °F 24.8 °F 86% 30.15 in 0.8 mi NE 9.2 mph - 0.00 in Snow Light Snow
11:29 AM 28.4 °F 19.1 °F 24.8 °F 86% 30.13 in 0.8 mi NE 10.4 mph - 0.01 in Snow Light Snow
11:40 AM 28.4 °F 19.1 °F 24.8 °F 86% 30.11 in 1.0 mi NE 10.4 mph - 0.01 in Snow Light Snow
11:52 AM 28.0 °F 18.6 °F 24.1 °F 85% 30.13 in 2.0 mi NE 10.4 mph - 0.01 in Snow Light Snow
12:02 PM 28.4 °F 18.0 °F 24.8 °F 86% 30.09 in 4.0 mi NE 12.7 mph - 0.00 in Snow Light Snow
12:24 PM 28.4 °F 18.0 °F 24.8 °F 86% 30.08 in 7.0 mi NE 12.7 mph - 0.00 in   Overcast
12:52 PM 28.0 °F 18.1 °F 24.1 °F 85% 30.09 in 7.0 mi NE 11.5 mph - 0.00 in   Overcast
1:06 PM 28.4 °F 19.1 °F 24.8 °F 86% 30.07 in 2.0 mi ENE 10.4 mph - 0.00 in Snow Light Snow
1:15 PM 28.4 °F 19.1 °F 24.8 °F 86% 30.07 in 1.5 mi NE 10.4 mph - 0.00 in Snow Light Snow
1:32 PM 26.6 °F 16.2 °F 23.0 °F 86% 30.06 in 0.5 mi NE 11.5 mph - 0.01 in Fog , Snow Snow
1:52 PM 27.0 °F 17.3 °F 24.1 °F 89% 30.09 in 0.5 mi NE 10.4 mph - 0.02 in Fog , Snow Snow
2:09 PM 26.6 °F 17.5 °F 24.8 °F 93% 30.06 in 0.2 mi NE 9.2 mph - 0.01 in Fog , Snow Snow
2:23 PM 26.6 °F 15.2 °F 23.0 °F 86% 30.05 in 0.5 mi NE 13.8 mph - 0.02 in Fog , Snow Snow
2:38 PM 26.6 °F 14.7 °F 21.2 °F 80% 30.04 in 0.8 mi NE 15.0 mph - 0.02 in Snow Light Snow
2:52 PM 26.1 °F 15.0 °F 21.9 °F 84% 30.09 in 0.8 mi NNE 12.7 mph - 0.02 in Snow Light Snow
3:04 PM 26.6 °F 16.2 °F 21.2 °F 80% 30.07 in 1.0 mi NE 11.5 mph - 0.01 in Snow Light Snow
3:14 PM 26.6 °F 16.8 °F 21.2 °F 80% 30.07 in 1.0 mi NNE 10.4 mph - 0.01 in Snow Light Snow
3:21 PM 24.8 °F 15.3 °F 21.2 °F 86% 30.08 in 1.2 mi NNE 9.2 mph - 0.01 in Snow Light Snow
3:28 PM 24.8 °F 13.4 °F 21.2 °F 86% 30.08 in 1.8 mi NE 12.7 mph - 0.01 in Snow Light Snow
3:48 PM 24.8 °F 13.4 °F 21.2 °F 86% 30.08 in 1.2 mi NE 12.7 mph - 0.01 in Snow Light Snow
3:52 PM 25.0 °F 14.8 °F 21.0 °F 85% 30.12 in 1.2 mi NNE 10.4 mph - 0.02 in Snow Light Snow
4:00 PM 24.8 °F 13.4 °F 21.2 °F 86% 30.09 in 1.5 mi NE 12.7 mph - 0.00 in Snow Light Snow
4:11 PM 24.8 °F 14.0 °F 21.2 °F 86% 30.09 in 2.0 mi NNE 11.5 mph - 0.00 in Snow Light Snow
4:23 PM 24.8 °F 14.0 °F 19.4 °F 80% 30.09 in 1.5 mi NNE 11.5 mph - 0.00 in Snow Light Snow
4:40 PM 24.8 °F 12.4 °F 19.4 °F 80% 30.10 in 1.0 mi NE 15.0 mph - 0.01 in Snow Light Snow
4:48 PM 24.8 °F 14.0 °F 19.4 °F 80% 30.09 in 0.8 mi NE 11.5 mph - 0.01 in Snow Light Snow
4:52 PM 24.1 °F 15.2 °F 19.9 °F 84% 30.13 in 0.8 mi NE 8.1 mph - 0.01 in Snow Light Snow
5:11 PM 24.8 °F 13.4 °F 19.4 °F 80% 30.10 in 1.0 mi NE 12.7 mph - 0.01 in Snow Light Snow
5:52 PM 24.1 °F 13.1 °F 21.0 °F 88% 30.16 in 1.0 mi NNE 11.5 mph - 0.02 in Snow Light Snow
6:00 PM 24.8 °F 14.6 °F 21.2 °F 86% 30.12 in 0.8 mi NNE 10.4 mph - 0.01 in Snow Light Snow
6:11 PM 24.8 °F 14.6 °F 19.4 °F 80% 30.12 in 1.0 mi NNE 10.4 mph - 0.01 in Snow Light Snow
6:40 PM 24.8 °F 12.9 °F 19.4 °F 80% 30.13 in 1.5 mi NE 13.8 mph - 0.02 in Snow Light Snow
6:52 PM 24.1 °F 13.7 °F 19.9 °F 84% 30.17 in 1.8 mi NE 10.4 mph - 0.02 in Snow Light Snow
7:01 PM 24.8 °F 14.0 °F 19.4 °F 80% 30.14 in 2.0 mi NE 11.5 mph - N/A Snow Light Snow
7:20 PM 24.8 °F 14.0 °F 19.4 °F 80% 30.14 in 2.5 mi NE 11.5 mph - 0.00 in Snow Light Snow
7:48 PM 24.8 °F 14.6 °F 19.4 °F 80% 30.15 in 3.0 mi NNE 10.4 mph - N/A Snow Light Snow
7:52 PM 24.1 °F 12.5 °F 19.9 °F 84% 30.19 in 4.0 mi NE 12.7 mph - 0.00 in Snow Light Snow
8:02 PM 24.8 °F 14.0 °F 19.4 °F 80% 30.15 in 4.0 mi NNE 11.5 mph - 0.00 in Snow Light Snow
8:26 PM 24.8 °F 12.9 °F 19.4 °F 80% 30.15 in 5.0 mi NE 13.8 mph - 0.00 in Snow Light Snow
8:52 PM 24.1 °F 13.1 °F 19.0 °F 81% 30.19 in 3.0 mi NNE 11.5 mph - 0.00 in Snow Light Snow
9:02 PM 24.8 °F 13.4 °F 19.4 °F 80% 30.16 in 3.0 mi NE 12.7 mph - 0.00 in Snow Light Snow
9:17 PM 23.0 °F 11.1 °F 19.4 °F 86% 30.16 in 2.0 mi NE 12.7 mph - 0.00 in Snow Light Snow
9:26 PM 23.0 °F 11.7 °F 19.4 °F 86% 30.16 in 1.8 mi NE 11.5 mph - 0.00 in Snow Light Snow
9:35 PM 23.0 °F 12.4 °F 19.4 °F 86% 30.17 in 2.0 mi NE 10.4 mph - 0.00 in Snow Light Snow
9:48 PM 23.0 °F 12.4 °F 19.4 °F 86% 30.17 in 3.0 mi NE 10.4 mph - 0.00 in Snow Light Snow
9:52 PM 23.0 °F 12.4 °F 19.0 °F 85% 30.21 in 4.0 mi NE 10.4 mph - 0.00 in Snow Light Snow
10:18 PM 23.0 °F 13.9 °F 19.4 °F 86% 30.19 in 2.5 mi NE 8.1 mph - 0.00 in Snow Light Snow
10:52 PM 23.0 °F 13.1 °F 19.0 °F 85% 30.23 in 1.2 mi NNE 9.2 mph - 0.01 in Snow Light Snow
11:04 PM 23.0 °F 13.1 °F 19.4 °F 86% 30.19 in 1.2 mi NE 9.2 mph - 0.00 in Snow Light Snow
11:20 PM 23.0 °F 12.4 °F 19.4 °F 86% 30.19 in 2.5 mi NNE 10.4 mph - 0.00 in Snow Light Snow
11:30 PM 23.0 °F 13.1 °F 19.4 °F 86% 30.19 in 3.0 mi NE 9.2 mph - 0.00 in Snow Light Snow
11:52 PM 21.9 °F 12.5 °F 18.0 °F 85% 30.25 in 2.5 mi NNE 8.1 mph - 0.00 in Snow Light Snow